DW8016 Weather Reports


time (UTC)temp
C
wind
direction
speed
KPH
gust
KPH
rain 1hr
cm
rain 24hr
cm
rain mn
cm
humidity
%
barometer
mb
20260904035645 22 59 0.0 54.7 3.12 1.98 2.03 88 1016.0
20260904033523 28 283 0.0 4.8 0.00 0.00 0.00 81 1014.5
20260904032541 28 290 0.0 4.8 0.00 0.00 0.00 81 1013.3
20260904031539 28 238 0.0 1.6 0.00 0.00 0.00 80 1012.8
20260904030506 28 186 0.0 0.0 0.00 0.00 0.00 81 1012.7
20260904025500 28 186 0.0 0.0 0.00 0.00 0.00 81 1013.0
20260904024508 28 186 0.0 0.0 0.00 0.00 0.00 80 1013.1
20260904023442 28 186 0.0 0.0 0.00 0.00 0.00 80 1013.4
20260904022417 28 186 0.0 0.0 0.00 0.00 0.00 79 1013.4
20260904021440 28 186 0.0 0.0 0.00 0.00 0.00 79 1013.2
20260904020441 28 186 0.0 0.0 0.00 0.00 0.00 78 1013.4
20260904015421 29 186 0.0 0.0 0.00 0.00 0.00 78 1013.4
20260904014353 29 193 0.0 4.8 0.00 0.00 0.00 77 1013.3
20260904013346 29 242 0.0 4.8 0.00 0.00 0.00 77 1013.4
20260904012357 29 225 0.0 0.0 0.00 0.00 0.00 77 1013.4
20260904011417 29 209 0.0 1.6 0.00 0.00 0.00 76 1013.2
20260904010403 29 226 0.0 6.4 0.00 0.00 0.00 75 1013.3
20260904004229 30 244 0.0 1.6 0.00 0.00 0.00 74 1013.6
20260904003222 30 254 0.0 4.8 0.00 0.00 0.00 73 1013.9
20260903235954 30 273 0.0 6.4 0.00 0.00 0.00 72 1013.9
20260903235017 30 227 0.0 0.0 0.00 0.00 0.00 71 1013.8
20260903233947 31 205 0.0 4.8 0.00 0.00 0.00 71 1013.4
20260903232914 31 247 0.0 8.0 0.00 0.00 0.00 70 1013.2
20260903231932 31 219 1.6 8.0 0.00 0.00 0.00 69 1013.1
20260903230926 31 248 0.0 12.9 0.00 0.00 0.00 68 1013.2
20260903225853 31 273 0.0 12.9 0.00 0.00 0.00 67 1013.2
20260903224830 32 188 0.0 8.0 0.00 0.00 0.00 66 1013.0
20260903223844 32 270 3.2 12.9 0.00 0.00 0.00 64 1012.8
20260903222829 32 219 3.2 16.1 0.00 0.00 0.00 63 1012.9
20260903221756 32 138 4.8 1.6 0.00 0.00 0.00 63 1012.7
20260903220816 33 289 6.4 16.1 0.00 0.00 0.00 62 1012.8
20260903215743 33 222 4.8 19.3 0.00 0.00 0.00 62 1012.9
20260903214720 33 242 4.8 19.3 0.00 0.00 0.00 62 1012.7
20260903213715 33 200 3.2 14.5 0.00 0.00 0.00 62 1012.8
20260903211524 33 193 3.2 16.1 0.00 0.00 0.00 61 1012.9
20260903210526 33 273 4.8 17.7 0.00 0.00 0.00 60 1013.0
20260903204407 34 257 3.2 16.1 0.00 0.00 0.00 58 1013.1
20260903203352 34 243 3.2 12.9 0.00 0.00 0.00 57 1013.2
20260903202404 34 267 3.2 14.5 0.00 0.00 0.00 57 1013.3
20260903201336 34 314 4.8 14.5 0.00 0.00 0.00 57 1013.5
20260903195211 34 270 3.2 12.9 0.00 0.00 0.00 56 1013.9
20260903194144 34 261 3.2 12.9 0.00 0.00 0.00 57 1014.1
20260903193141 33 275 1.6 9.7 0.00 0.00 0.00 58 1014.2
20260903192146 33 279 1.6 9.7 0.00 0.00 0.00 56 1014.3
20260903191121 33 231 0.0 12.9 0.00 0.00 0.00 58 1014.5
20260903190109 33 260 1.6 12.9 0.00 0.00 0.00 59 1014.6
20260903183946 33 228 1.6 17.7 0.00 0.00 0.00 59 1014.8
20260903182935 33 267 4.8 17.7 0.00 0.00 0.00 57 1014.6
20260903181918 33 286 4.8 12.9 0.00 0.53 0.00 58 1014.9
20260903180903 32 268 1.6 8.0 0.00 0.94 0.00 60 1015.0
20260903175915 32 244 0.0 4.8 0.00 0.99 0.00 61 1015.0
20260903174936 32 271 1.6 6.4 0.00 0.99 0.00 59 1014.9
20260903172816 32 229 3.2 11.3 0.00 0.99 0.00 63 1015.8
20260903171812 31 265 3.2 11.3 0.00 0.99 0.00 65 1016.1
20260903170822 30 310 1.6 1.6 0.00 0.99 0.00 67 1016.2
20260903165758 30 326 0.0 9.7 0.00 0.99 0.00 70 1016.4
20260903163716 28 107 0.0 0.0 0.00 0.99 0.00 78 1016.6
20260903162652 27 101 0.0 0.0 0.00 0.99 0.00 81 1016.9
20260903161627 27 102 0.0 0.0 0.00 0.99 0.00 81 1017.1
20260903160556 27 102 0.0 0.0 0.00 0.99 0.00 82 1017.4
20260903155539 27 104 0.0 1.6 0.00 0.99 0.00 82 1017.5
20260903154528 27 338 0.0 8.0 0.00 0.99 0.00 81 1018.1
20260903152325 28 307 0.0 4.8 0.00 0.99 0.00 77 1017.1
20260903151309 28 266 0.0 9.7 0.00 0.99 0.00 80 1017.0
20260903150243 28 268 0.0 1.6 0.00 0.99 0.00 79 1017.1
20260903145213 28 260 0.0 6.4 0.00 0.99 0.00 80 1017.0
20260903144224 27 206 3.2 11.3 0.00 0.99 0.00 81 1017.0
20260903143204 27 168 1.6 11.3 0.00 0.99 0.00 83 1016.8
20260903142213 26 220 1.6 8.0 0.00 0.99 0.00 87 1016.7
20260903141200 25 179 1.6 16.1 0.00 0.99 0.00 88 1016.4
20260903140139 25 165 3.2 16.1 0.00 0.99 0.00 88 1016.5
20260903135202 25 169 3.2 4.8 0.00 0.99 0.00 89 1016.4
20260903134211 24 250 1.6 9.7 0.00 0.99 0.00 89 1016.4
20260903133234 24 165 3.2 9.7 0.00 0.99 0.00 90 1016.5
20260903132253 24 154 0.0 4.8 0.00 0.99 0.00 91 1016.7
20260903131227 24 178 0.0 1.6 0.00 0.99 0.00 92 1017.1
20260903130248 23 180 0.0 1.6 0.00 0.99 0.00 93 1017.3
20260903125306 23 154 0.0 6.4 0.00 0.99 0.00 94 1017.5
20260903124326 23 152 0.0 0.0 0.00 0.99 0.00 94 1017.7
20260903122210 23 51 0.0 1.6 0.00 0.99 0.00 94 1017.9
20260903120045 23 47 0.0 0.0 0.00 0.99 0.00 95 1018.1
20260903115023 23 47 0.0 1.6 0.00 0.99 0.00 95 1018.0
20260903112821 23 23 0.0 3.2 0.00 0.99 0.00 95 1018.1
20260903111801 23 23 0.0 4.8 0.00 0.99 0.00 95 1017.8
20260903110756 22 23 0.0 0.0 0.00 0.99 0.00 95 1017.1
20260903105750 22 23 0.0 0.0 0.00 0.99 0.00 95 1017.0
20260903103549 22 23 0.0 0.0 0.00 0.99 0.00 94 1016.5
20260903102552 22 23 0.0 6.4 0.00 0.99 0.00 94 1016.5
20260903101538 22 162 0.0 0.0 0.00 0.99 0.00 94 1016.1
20260903100535 22 162 0.0 0.0 0.00 0.99 0.00 94 1015.9
20260903095548 22 162 0.0 0.0 0.00 0.99 0.00 94 1016.0
20260903094534 22 162 0.0 0.0 0.00 0.99 0.00 94 1016.0
20260903093504 22 162 0.0 0.0 0.00 0.99 0.00 94 1016.2
20260903092510 22 162 0.0 0.0 0.00 0.99 0.00 94 1016.3
20260903091439 22 162 0.0 0.0 0.00 0.99 0.00 94 1016.3
20260903090429 22 162 0.0 0.0 0.00 0.99 0.00 93 1016.2
20260903085432 22 162 0.0 0.0 0.00 0.99 0.00 93 1016.3
20260903084453 23 162 0.0 1.6 0.00 0.99 0.00 93 1016.1
20260903083444 23 162 0.0 4.8 0.00 0.99 0.00 93 1015.8
20260903082420 23 162 0.0 0.0 0.00 0.99 0.00 93 1015.9
20260903081354 23 162 0.0 0.0 0.00 0.99 0.00 93 1015.9
20260903075307 23 167 0.0 8.0 0.00 0.99 0.00 93 1015.9
20260903073107 23 117 0.0 8.0 0.00 0.99 0.00 93 1016.1
20260903072036 22 168 0.0 8.0 0.00 0.99 0.00 93 1016.0
20260903071015 22 138 0.0 4.8 0.00 0.99 0.00 93 1016.0
20260903070005 23 111 0.0 4.8 0.00 0.99 0.00 93 1016.0
20260903064946 23 124 0.0 1.6 0.00 0.99 0.00 93 1016.0
20260903063934 23 160 0.0 9.7 0.00 0.99 0.00 93 1016.1
20260903061736 23 145 0.0 0.0 0.00 0.99 0.00 93 1016.2
20260903060744 23 145 0.0 0.0 0.00 0.99 0.00 93 1016.2
20260903055743 23 138 1.6 6.4 0.00 0.99 0.00 93 1016.1
20260903054754 23 107 0.0 4.8 0.00 0.99 0.00 94 1016.4
20260903053725 23 106 0.0 0.0 0.00 0.99 0.00 94 1016.3
20260903052746 22 106 0.0 3.2 0.00 0.99 0.00 94 1016.3
20260903051753 22 106 0.0 0.0 0.00 0.99 0.00 94 1016.3
20260903050735 22 106 0.0 0.0 0.00 0.99 0.00 94 1016.5
20260903045746 22 106 0.0 0.0 0.00 0.99 0.00 94 1016.6
20260903044743 22 106 0.0 0.0 0.00 0.99 0.00 94 1016.7
20260903043731 22 106 0.0 0.0 0.00 0.99 0.00 94 1016.7
20260903042710 22 106 0.0 0.0 0.00 0.99 0.00 94 1016.7
20260903040623 22 106 0.0 0.0 0.00 0.99 0.00 94 1017.0